| time (UTC) | temp F | wind direction | speed MPH | gust MPH | rain 1hr in | rain 24hr in | rain mn in | humidity % | barometer mb |
| 20260505123755 | 50 | 134 | 2.0 | 7.0 | 0.00 | 0.05 | 0.02 | 1014.7 | |
| 20260505123752 | 50 | 134 | 2.0 | 7.0 | 0.00 | 0.05 | 0.02 | 1014.7 | |
| 20260505123252 | 50 | 197 | 1.0 | 7.0 | 0.00 | 0.05 | 0.02 | 1014.7 | |
| 20260505122752 | 50 | 201 | 0.0 | 6.0 | 0.00 | 0.05 | 0.02 | 1014.7 | |
| 20260505122253 | 50 | 205 | 0.0 | 6.0 | 0.00 | 0.05 | 0.02 | 1014.7 | |
| 20260505121751 | 50 | 189 | 1.0 | 6.0 | 0.00 | 0.05 | 0.02 | 1014.7 | |
| 20260505121252 | 50 | 184 | 0.0 | 8.0 | 0.00 | 0.05 | 0.02 | 1014.7 | |
| 20260505120751 | 50 | 128 | 0.0 | 8.0 | 0.00 | 0.06 | 0.02 | 1014.7 | |
| 20260505115752 | 50 | 191 | 3.0 | 8.0 | 0.00 | 0.06 | 0.02 | 1014.6 | |
| 20260505115252 | 50 | 180 | 0.0 | 9.0 | 0.00 | 0.06 | 0.02 | 1014.6 | |
| 20260505114751 | 50 | 205 | 2.0 | 9.0 | 0.00 | 0.06 | 0.02 | 1014.6 | |
| 20260505114251 | 50 | 232 | 2.0 | 9.0 | 0.00 | 0.06 | 0.02 | 1014.5 | |
| 20260505113756 | 50 | 175 | 2.0 | 8.0 | 0.00 | 0.06 | 0.02 | 1014.6 | |
| 20260505113751 | 50 | 175 | 2.0 | 8.0 | 0.00 | 0.06 | 0.02 | 1014.6 | |
| 20260505112751 | 50 | 221 | 3.0 | 13.0 | 0.00 | 0.06 | 0.02 | 1014.6 | |
| 20260505112252 | 50 | 204 | 1.0 | 13.0 | 0.00 | 0.06 | 0.02 | 1014.6 | |
| 20260505111751 | 50 | 222 | 1.0 | 10.0 | 0.00 | 0.06 | 0.02 | 1014.5 | |
| 20260505110752 | 50 | 228 | 4.0 | 14.0 | 0.01 | 0.08 | 0.02 | 1014.6 | |
| 20260505110253 | 50 | 228 | 6.0 | 14.0 | 0.01 | 0.08 | 0.02 | 1014.6 | |
| 20260505101752 | 50 | 172 | 1.0 | 11.0 | 0.01 | 0.08 | 0.02 | 1014.5 | |
| 20260505101251 | 50 | 218 | 6.0 | 11.0 | 0.01 | 0.08 | 0.02 | 1014.3 | |
| 20260505100751 | 50 | 210 | 0.0 | 6.0 | 0.00 | 0.08 | 0.02 | 1014.4 | |
| 20260505095751 | 50 | 142 | 0.0 | 10.0 | 0.00 | 0.08 | 0.01 | 1014.5 | |
| 20260505095254 | 50 | 124 | 0.0 | 10.0 | 0.00 | 0.08 | 0.01 | 1014.5 | |
| 20260505094751 | 50 | 187 | 2.0 | 10.0 | 0.00 | 0.08 | 0.01 | 1014.4 | |
| 20260505094251 | 50 | 165 | 5.0 | 13.0 | 0.00 | 0.08 | 0.01 | 1014.3 | |
| 20260505093751 | 50 | 184 | 1.0 | 13.0 | 0.00 | 0.08 | 0.01 | 1014.2 | |
| 20260505090751 | 50 | 190 | 5.0 | 14.0 | 0.00 | 0.08 | 0.01 | 1014.1 | |
| 20260505085752 | 50 | 187 | 4.0 | 13.0 | 0.00 | 0.08 | 0.01 | 1014.1 | |
| 20260505084751 | 50 | 184 | 4.0 | 11.0 | 0.00 | 0.08 | 0.01 | 1014.1 | |
| 20260505083751 | 50 | 203 | 6.0 | 13.0 | 0.00 | 0.08 | 0.01 | 1014.1 | |
| 20260505082751 | 50 | 182 | 5.0 | 13.0 | 0.00 | 0.08 | 0.01 | 1014.2 | |
| 20260505081751 | 50 | 226 | 4.0 | 18.0 | 0.01 | 0.08 | 0.01 | 1014.1 | |
| 20260505080754 | 50 | 196 | 6.0 | 18.0 | 0.01 | 0.08 | 0.01 | 1014.2 | |
| 20260505080751 | 50 | 196 | 6.0 | 18.0 | 0.01 | 0.08 | 0.01 | 1014.2 | |
| 20260505080252 | 49 | 215 | 6.0 | 18.0 | 0.01 | 0.08 | 0.01 | 1014.2 | |
| 20260505075751 | 49 | 191 | 6.0 | 18.0 | 0.01 | 0.08 | 0.01 | 1014.2 | |
| 20260505075252 | 49 | 200 | 8.0 | 18.0 | 0.01 | 0.08 | 0.01 | 1014.2 | |
| 20260505074251 | 50 | 148 | 7.0 | 16.0 | 0.01 | 0.08 | 0.01 | 1014.3 | |
| 20260505073751 | 49 | 226 | 9.0 | 16.0 | 0.01 | 0.08 | 0.01 | 1014.2 | |
| 20260505073251 | 49 | 189 | 5.0 | 12.0 | 0.01 | 0.08 | 0.01 | 1014.2 | |
| 20260505072751 | 50 | 211 | 6.0 | 12.0 | 0.01 | 0.08 | 0.01 | 1014.2 | |
| 20260505072252 | 50 | 204 | 5.0 | 11.0 | 0.01 | 0.08 | 0.01 | 1014.2 | |
| 20260505071750 | 50 | 190 | 4.0 | 17.0 | 0.00 | 0.08 | 0.01 | 1014.2 | |
| 20260505070750 | 50 | 210 | 4.0 | 17.0 | 0.00 | 0.09 | 0.00 | 1014.2 | |
| 20260505070252 | 50 | 200 | 3.0 | 11.0 | 0.00 | 0.09 | 0.08 | 1014.2 | |
| 20260505065750 | 50 | 215 | 4.0 | 11.0 | 0.00 | 0.09 | 0.08 | 1014.3 | |
| 20260505064750 | 51 | 190 | 2.0 | 11.0 | 0.00 | 0.09 | 0.08 | 1014.4 | |
| 20260505064252 | 50 | 193 | 6.0 | 11.0 | 0.00 | 0.09 | 0.08 | 1014.4 | |
| 20260505063750 | 50 | 260 | 5.0 | 16.0 | 0.00 | 0.09 | 0.08 | 1014.4 | |
| 20260505062750 | 50 | 207 | 4.0 | 16.0 | 0.00 | 0.09 | 0.08 | 1014.3 | |
| 20260505061750 | 50 | 207 | 4.0 | 12.0 | 0.00 | 0.09 | 0.08 | 1014.2 | |
| 20260505060751 | 50 | 183 | 4.0 | 10.0 | 0.00 | 0.09 | 0.08 | 1014.3 | |
| 20260505055750 | 50 | 197 | 2.0 | 16.0 | 0.00 | 0.09 | 0.08 | 1014.3 | |
| 20260505055252 | 50 | 151 | 7.0 | 16.0 | 0.00 | 0.09 | 0.08 | 1014.3 | |
| 20260505054750 | 50 | 191 | 6.0 | 12.0 | 0.00 | 0.09 | 0.08 | 1014.4 | |
| 20260505054250 | 50 | 224 | 3.0 | 13.0 | 0.00 | 0.09 | 0.08 | 1014.5 | |
| 20260505053750 | 50 | 186 | 0.0 | 13.0 | 0.00 | 0.09 | 0.08 | 1014.5 | |
| 20260505053250 | 50 | 210 | 6.0 | 13.0 | 0.00 | 0.09 | 0.08 | 1014.4 | |
| 20260505052750 | 50 | 186 | 6.0 | 13.0 | 0.00 | 0.09 | 0.08 | 1014.5 | |
| 20260505052253 | 50 | 205 | 5.0 | 14.0 | 0.00 | 0.09 | 0.08 | 1014.3 | |
| 20260505051750 | 50 | 170 | 6.0 | 14.0 | 0.00 | 0.09 | 0.08 | 1014.3 | |
| 20260505051250 | 50 | 231 | 5.0 | 14.0 | 0.00 | 0.09 | 0.08 | 1014.4 | |
| 20260505050750 | 50 | 175 | 7.0 | 13.0 | 0.00 | 0.10 | 0.08 | 1014.3 | |
| 20260505050250 | 50 | 215 | 6.0 | 11.0 | 0.00 | 0.10 | 0.08 | 1014.3 | |
| 20260505041750 | 50 | 205 | 5.0 | 13.0 | 0.00 | 0.10 | 0.08 | 1013.9 | |
| 20260505041250 | 50 | 212 | 4.0 | 13.0 | 0.00 | 0.10 | 0.08 | 1013.8 | |
| 20260505040750 | 49 | 180 | 7.0 | 15.0 | 0.00 | 0.13 | 0.08 | 1013.6 | |
| 20260505040250 | 50 | 200 | 6.0 | 15.0 | 0.00 | 0.13 | 0.08 | 1013.6 | |
| 20260505035750 | 50 | 194 | 7.0 | 15.0 | 0.00 | 0.13 | 0.08 | 1013.5 | |
| 20260505035258 | 50 | 249 | 7.0 | 15.0 | 0.00 | 0.13 | 0.08 | 1013.5 | |
| 20260505035250 | 50 | 249 | 7.0 | 15.0 | 0.00 | 0.13 | 0.08 | 1013.5 | |
| 20260505034750 | 50 | 219 | 6.0 | 18.0 | 0.00 | 0.13 | 0.08 | 1013.5 | |
| 20260505034250 | 49 | 182 | 7.0 | 18.0 | 0.00 | 0.13 | 0.08 | 1013.5 | |
| 20260505033750 | 50 | 191 | 8.0 | 18.0 | 0.00 | 0.13 | 0.08 | 1013.5 | |
| 20260505033250 | 49 | 204 | 8.0 | 15.0 | 0.00 | 0.13 | 0.08 | 1013.4 | |
| 20260505032750 | 50 | 187 | 7.0 | 17.0 | 0.00 | 0.13 | 0.08 | 1013.5 | |
| 20260505032255 | 50 | 189 | 9.0 | 17.0 | 0.00 | 0.13 | 0.08 | 1013.5 | |
| 20260505032250 | 50 | 189 | 9.0 | 17.0 | 0.00 | 0.13 | 0.08 | 1013.5 | |
| 20260505031750 | 50 | 207 | 8.0 | 17.0 | 0.00 | 0.13 | 0.08 | 1013.4 | |
| 20260505031250 | 50 | 187 | 6.0 | 15.0 | 0.00 | 0.13 | 0.08 | 1013.4 | |
| 20260505030750 | 50 | 170 | 6.0 | 15.0 | 0.00 | 0.16 | 0.08 | 1013.3 | |
| 20260505030250 | 50 | 201 | 9.0 | 14.0 | 0.00 | 0.16 | 0.08 | 1013.2 | |
| 20260505025750 | 50 | 225 | 8.0 | 17.0 | 0.00 | 0.16 | 0.08 | 1013.2 | |
| 20260505024750 | 50 | 214 | 8.0 | 17.0 | 0.00 | 0.16 | 0.08 | 1013.1 | |
| 20260505024250 | 50 | 179 | 9.0 | 19.0 | 0.00 | 0.16 | 0.08 | 1013.1 | |
| 20260505023752 | 50 | 218 | 8.0 | 19.0 | 0.00 | 0.16 | 0.08 | 1013.2 | |
| 20260505023251 | 50 | 240 | 7.0 | 19.0 | 0.00 | 0.16 | 0.08 | 1013.2 | |
| 20260505022749 | 50 | 225 | 9.0 | 19.0 | 0.00 | 0.16 | 0.08 | 1013.1 | |
| 20260505022250 | 50 | 183 | 9.0 | 20.0 | 0.00 | 0.16 | 0.08 | 1013.1 | |
| 20260505021749 | 50 | 187 | 9.0 | 20.0 | 0.00 | 0.16 | 0.08 | 1013.0 | |
| 20260505021249 | 50 | 212 | 10.0 | 20.0 | 0.00 | 0.16 | 0.08 | 1013.0 | |
| 20260505020750 | 50 | 217 | 9.0 | 20.0 | 0.00 | 0.16 | 0.08 | 1012.9 | |
| 20260505020250 | 51 | 200 | 7.0 | 17.0 | 0.00 | 0.16 | 0.08 | 1013.0 | |
| 20260505015749 | 50 | 173 | 10.0 | 17.0 | 0.00 | 0.16 | 0.08 | 1013.0 | |
| 20260505015250 | 50 | 193 | 9.0 | 21.0 | 0.00 | 0.16 | 0.08 | 1013.0 | |
| 20260505014749 | 50 | 217 | 9.0 | 21.0 | 0.00 | 0.16 | 0.08 | 1013.0 | |
| 20260505014249 | 50 | 200 | 11.0 | 21.0 | 0.00 | 0.16 | 0.08 | 1012.9 | |
| 20260505013749 | 50 | 187 | 11.0 | 21.0 | 0.00 | 0.16 | 0.08 | 1013.0 | |
| 20260505013249 | 50 | 205 | 11.0 | 21.0 | 0.00 | 0.16 | 0.08 | 1013.1 | |
| 20260505012749 | 50 | 193 | 10.0 | 23.0 | 0.00 | 0.16 | 0.08 | 1013.1 | |
| 20260505012250 | 50 | 191 | 10.0 | 23.0 | 0.00 | 0.16 | 0.08 | 1013.2 | |
| 20260505011749 | 50 | 232 | 15.0 | 23.0 | 0.00 | 0.16 | 0.08 | 1013.3 | |
| 20260505011249 | 51 | 189 | 12.0 | 20.0 | 0.00 | 0.16 | 0.08 | 1013.4 | |
| 20260505010749 | 50 | 231 | 12.0 | 26.0 | 0.00 | 0.16 | 0.08 | 1013.4 | |
| 20260505010249 | 51 | 207 | 9.0 | 26.0 | 0.00 | 0.16 | 0.08 | 1013.6 | |
| 20260505005250 | 51 | 212 | 14.0 | 22.0 | 0.00 | 0.16 | 0.08 | 1013.5 | |
| 20260505004749 | 51 | 219 | 11.0 | 22.0 | 0.00 | 0.16 | 0.08 | 1013.4 | |
| 20260505004249 | 52 | 208 | 13.0 | 22.0 | 0.00 | 0.16 | 0.08 | 1013.5 | |
| 20260505003749 | 52 | 214 | 12.0 | 22.0 | 0.00 | 0.16 | 0.08 | 1013.6 | |
| 20260505003249 | 51 | 214 | 11.0 | 21.0 | 0.00 | 0.16 | 0.08 | 1013.6 | |
| 20260505002749 | 51 | 187 | 11.0 | 20.0 | 0.00 | 0.16 | 0.08 | 1013.5 | |
| 20260505002251 | 52 | 221 | 10.0 | 23.0 | 0.00 | 0.16 | 0.08 | 1013.6 | |
| 20260505001749 | 52 | 149 | 12.0 | 23.0 | 0.00 | 0.16 | 0.08 | 1013.6 | |
| 20260505000749 | 51 | 214 | 12.0 | 24.0 | 0.00 | 0.16 | 0.08 | 1013.6 | |
| 20260505000249 | 51 | 212 | 11.0 | 24.0 | 0.00 | 0.16 | 0.08 | 1013.6 | |
| 20260504235749 | 52 | 186 | 10.0 | 24.0 | 0.00 | 0.16 | 0.08 | 1013.6 | |
| 20260504235250 | 52 | 208 | 10.0 | 24.0 | 0.00 | 0.16 | 0.08 | 1013.6 | |
| 20260504234750 | 52 | 193 | 12.0 | 24.0 | 0.00 | 0.16 | 0.08 | 1013.6 | |
| 20260504233749 | 52 | 184 | 10.0 | 24.0 | 0.00 | 0.16 | 0.08 | 1013.6 | |
| 20260504233249 | 52 | 228 | 13.0 | 24.0 | 0.00 | 0.16 | 0.08 | 1013.6 | |
| 20260504232749 | 52 | 183 | 12.0 | 24.0 | 0.00 | 0.16 | 0.08 | 1013.6 | |
| 20260504232249 | 52 | 191 | 11.0 | 23.0 | 0.00 | 0.16 | 0.08 | 1013.6 | |
| 20260504231749 | 52 | 226 | 14.0 | 23.0 | 0.00 | 0.16 | 0.08 | 1013.8 | |
| 20260504230749 | 53 | 229 | 12.0 | 19.0 | 0.00 | 0.16 | 0.08 | 1013.9 | |
| 20260504230249 | 53 | 196 | 11.0 | 18.0 | 0.00 | 0.16 | 0.08 | 1013.9 | |
| 20260504225749 | 53 | 207 | 10.0 | 22.0 | 0.00 | 0.16 | 0.08 | 1014.0 | |
| 20260504224749 | 53 | 177 | 11.0 | 22.0 | 0.00 | 0.16 | 0.08 | 1014.1 | |
| 20260504224249 | 53 | 203 | 11.0 | 19.0 | 0.00 | 0.16 | 0.08 | 1014.1 | |
| 20260504223749 | 53 | 203 | 10.0 | 23.0 | 0.00 | 0.16 | 0.08 | 1014.1 | |
| 20260504223249 | 54 | 180 | 10.0 | 23.0 | 0.00 | 0.16 | 0.08 | 1014.2 | |
| 20260504222749 | 53 | 197 | 10.0 | 23.0 | 0.00 | 0.16 | 0.08 | 1014.3 | |
| 20260504222249 | 52 | 189 | 11.0 | 22.0 | 0.00 | 0.16 | 0.08 | 1014.4 | |
| 20260504221749 | 52 | 219 | 12.0 | 22.0 | 0.00 | 0.16 | 0.08 | 1014.4 | |
| 20260504221249 | 52 | 208 | 8.0 | 21.0 | 0.00 | 0.16 | 0.08 | 1014.4 | |
| 20260504220749 | 52 | 215 | 6.0 | 21.0 | 0.00 | 0.16 | 0.08 | 1014.5 | |
| 20260504215249 | 52 | 217 | 10.0 | 20.0 | 0.00 | 0.16 | 0.08 | 1014.5 | |
| 20260504214749 | 53 | 197 | 8.0 | 22.0 | 0.00 | 0.16 | 0.08 | 1014.6 | |
| 20260504214249 | 53 | 210 | 12.0 | 22.0 | 0.00 | 0.16 | 0.08 | 1014.6 | |
| 20260504213748 | 52 | 182 | 9.0 | 22.0 | 0.00 | 0.16 | 0.08 | 1014.6 | |
| 20260504213248 | 52 | 194 | 9.0 | 18.0 | 0.00 | 0.16 | 0.08 | 1014.6 | |
| 20260504212748 | 52 | 204 | 12.0 | 17.0 | 0.00 | 0.16 | 0.08 | 1014.6 | |
| 20260504212249 | 52 | 179 | 10.0 | 16.0 | 0.00 | 0.16 | 0.08 | 1014.6 | |
| 20260504211749 | 52 | 184 | 8.0 | 19.0 | 0.00 | 0.16 | 0.08 | 1014.7 | |
| 20260504211248 | 52 | 208 | 0.0 | 19.0 | 0.00 | 0.16 | 0.08 | 1014.6 | |
| 20260504210748 | 52 | 210 | 10.0 | 19.0 | 0.00 | 0.16 | 0.08 | 1014.6 | |
| 20260504205748 | 52 | 176 | 13.0 | 18.0 | 0.00 | 0.16 | 0.08 | 1014.6 | |
| 20260504205249 | 52 | 180 | 11.0 | 18.0 | 0.00 | 0.16 | 0.08 | 1014.5 | |
| 20260504204748 | 52 | 194 | 9.0 | 18.0 | 0.00 | 0.16 | 0.08 | 1014.5 | |
| 20260504203748 | 52 | 208 | 10.0 | 19.0 | 0.00 | 0.16 | 0.08 | 1014.5 | |
| 20260504203249 | 52 | 214 | 10.0 | 19.0 | 0.00 | 0.16 | 0.08 | 1014.7 | |
| 20260504202748 | 52 | 201 | 8.0 | 18.0 | 0.00 | 0.16 | 0.08 | 1014.6 | |
| 20260504202250 | 52 | 198 | 8.0 | 18.0 | 0.00 | 0.16 | 0.08 | 1014.6 | |
| 20260504201748 | 52 | 204 | 9.0 | 17.0 | 0.00 | 0.16 | 0.08 | 1014.7 | |
| 20260504201248 | 51 | 187 | 8.0 | 16.0 | 0.00 | 0.16 | 0.08 | 1014.7 | |
| 20260504200748 | 52 | 187 | 8.0 | 16.0 | 0.00 | 0.16 | 0.08 | 1014.6 | |
| 20260504200248 | 51 | 204 | 9.0 | 18.0 | 0.00 | 0.16 | 0.08 | 1014.5 | |
| 20260504195748 | 51 | 168 | 8.0 | 18.0 | 0.00 | 0.16 | 0.08 | 1014.6 | |
| 20260504195249 | 51 | 208 | 9.0 | 18.0 | 0.00 | 0.16 | 0.08 | 1014.5 | |
| 20260504194748 | 51 | 231 | 10.0 | 18.0 | 0.00 | 0.16 | 0.08 | 1014.5 | |
| 20260504194248 | 51 | 190 | 9.0 | 18.0 | 0.00 | 0.16 | 0.08 | 1014.4 | |
| 20260504193748 | 51 | 203 | 8.0 | 17.0 | 0.00 | 0.16 | 0.08 | 1014.3 | |
| 20260504192748 | 51 | 183 | 6.0 | 14.0 | 0.00 | 0.16 | 0.08 | 1014.4 | |
| 20260504192249 | 52 | 212 | 8.0 | 14.0 | 0.00 | 0.16 | 0.08 | 1014.3 | |
| 20260504191248 | 51 | 191 | 6.0 | 16.0 | 0.00 | 0.16 | 0.08 | 1014.3 | |
| 20260504190748 | 51 | 176 | 7.0 | 16.0 | 0.00 | 0.16 | 0.08 | 1014.4 | |
| 20260504190248 | 51 | 226 | 9.0 | 14.0 | 0.00 | 0.16 | 0.08 | 1014.3 | |
| 20260504185748 | 52 | 201 | 7.0 | 15.0 | 0.00 | 0.16 | 0.08 | 1014.4 | |
| 20260504184748 | 51 | 208 | 6.0 | 15.0 | 0.00 | 0.16 | 0.08 | 1014.5 | |
| 20260504184248 | 52 | 197 | 7.0 | 12.0 | 0.00 | 0.16 | 0.08 | 1014.5 | |
| 20260504183249 | 51 | 191 | 3.0 | 16.0 | 0.00 | 0.16 | 0.08 | 1014.5 | |
| 20260504182748 | 51 | 145 | 5.0 | 16.0 | 0.00 | 0.16 | 0.08 | 1014.5 | |
| 20260504182248 | 51 | 215 | 7.0 | 16.0 | 0.00 | 0.16 | 0.08 | 1014.4 | |
| 20260504181748 | 51 | 218 | 8.0 | 14.0 | 0.00 | 0.16 | 0.08 | 1014.5 | |
| 20260504181248 | 51 | 211 | 8.0 | 13.0 | 0.00 | 0.16 | 0.08 | 1014.4 | |
| 20260504180748 | 51 | 214 | 6.0 | 13.0 | 0.00 | 0.16 | 0.08 | 1014.4 | |
| 20260504180248 | 51 | 193 | 6.0 | 13.0 | 0.00 | 0.16 | 0.08 | 1014.4 | |
| 20260504175248 | 51 | 175 | 7.0 | 16.0 | 0.00 | 0.16 | 0.08 | 1014.4 | |
| 20260504174248 | 51 | 208 | 4.0 | 15.0 | 0.00 | 0.16 | 0.08 | 1014.4 | |
| 20260504173748 | 51 | 184 | 6.0 | 15.0 | 0.00 | 0.16 | 0.08 | 1014.4 | |
| 20260504172748 | 51 | 163 | 6.0 | 13.0 | 0.00 | 0.16 | 0.08 | 1014.4 | |
| 20260504172248 | 52 | 217 | 0.0 | 13.0 | 0.00 | 0.16 | 0.08 | 1014.3 | |
| 20260504171248 | 52 | 190 | 3.0 | 11.0 | 0.00 | 0.16 | 0.08 | 1014.3 | |
| 20260504170747 | 51 | 204 | 4.0 | 14.0 | 0.00 | 0.16 | 0.08 | 1014.3 | |
| 20260504170248 | 51 | 172 | 5.0 | 14.0 | 0.00 | 0.16 | 0.08 | 1014.2 | |
| 20260504160247 | 51 | 201 | 1.0 | 15.0 | 0.00 | 0.16 | 0.08 | 1013.9 | |
| 20260504150747 | 50 | 207 | 3.0 | 15.0 | 0.02 | 0.14 | 0.08 | 1013.4 | |
| 20260504150247 | 50 | 210 | 4.0 | 15.0 | 0.02 | 0.14 | 0.08 | 1013.5 | |
| 20260504141247 | 50 | 204 | 6.0 | 13.0 | 0.00 | 0.14 | 0.06 | 1013.1 | |
| 20260504140747 | 50 | 172 | 6.0 | 13.0 | 0.00 | 0.14 | 0.06 | 1013.1 | |
| 20260504140247 | 50 | 191 | 5.0 | 12.0 | 0.00 | 0.14 | 0.06 | 1012.9 | |
| 20260504130747 | 50 | 203 | 2.0 | 10.0 | 0.01 | 0.13 | 0.06 | 1012.5 | |
| 20260504130249 | 50 | 149 | 4.0 | 21.0 | 0.01 | 0.13 | 0.06 | 1012.4 |